User: anonymous   Login
Location: Oshawa
(43.9000°N, 78.8670°W)
Time: 21:59:47
(UTC-04:00)
Language:

CARTOSAT-1 - Orbit

View from above orbital plane
View from above orbital plane
View from above satellite
View from above satellite

Ground track
Ground track

The orbit data is extracted from the following two-line orbital elements,

1 28649U 05017A   17289.50094494  .00000917  00000-0  11802-3 0  9996
2 28649  97.8516   1.9365 0002669  46.7940 313.3501 14.83456074673963
Epoch (UTC): 16 October 2017 12:01:21
Eccentricity: 0.0002669
inclination: 97.8516°
perigee height: 616 km
apogee height: 620 km
right ascension of ascending node: 1.9365°
argument of perigee: 46.7940°
revolutions per day: 14.83456074
mean anomaly at epoch: 313.3501°
orbit number at epoch: 67396

The dashed part of the orbit path shows where the satellite is in the earth's shadow,  

DLR